This is the latest recevied weather packets stored in our database for station/object W8DRH-13. If no packets are shown the sender has not sent any weather packets the latest 10 day(s).
| Time | Temp. | Humidity | Pressure | Rain* | Wind** | Luminosity | Snow |
|---|---|---|---|---|---|---|---|
| 1777343251 | 16.11° C | 97% | 1007.1 hPa | 0 mm | - | 0 W/m² | - |
| 1777342646 | 16.11° C | 97% | 1007.9 hPa | 0 mm | - | 0 W/m² | - |
| 1777342342 | 16.11° C | 97% | 1008.3 hPa | 0 mm | - | 0 W/m² | - |
| 1777342040 | 16.11° C | 97% | 1008.4 hPa | 0 mm | - | 0 W/m² | - |
| 1777341736 | 16.11° C | 98% | 1009 hPa | 0 mm | - | 0 W/m² | - |
| 1777341432 | 16.11° C | 97% | 1009.7 hPa | 0 mm | - | 0 W/m² | - |
| 1777340825 | 16.11° C | 98% | 1010.2 hPa | 1.78 mm | - | 0 W/m² | - |
| 1777340220 | 16.11° C | 98% | 1010.2 hPa | 0 mm | - | 0 W/m² | - |
| 1777339917 | 16.67° C | 97% | 1010.9 hPa | 0 mm | - | 0 W/m² | - |
| 1777339615 | 16.67° C | 97% | 1011.4 hPa | 1.27 mm | - | 0 W/m² | - |
| 1777339312 | 16.67° C | 97% | 1011.6 hPa | 3.05 mm | - | 0 W/m² | - |
| 1777339010 | 16.67° C | 97% | 1011.7 hPa | 3.05 mm | - | 0 W/m² | - |
| 1777338707 | 16.67° C | 97% | 1012.1 hPa | 3.05 mm | - | 0 W/m² | - |
| 1777338405 | 16.67° C | 97% | 1012.2 hPa | 3.05 mm | - | 0 W/m² | - |
| 1777338101 | 16.67° C | 97% | 1012 hPa | 3.05 mm | - | 0 W/m² | - |
| 1777337797 | 16.67° C | 97% | 1012 hPa | 3.56 mm | - | 0 W/m² | - |
| 1777337495 | 16.67° C | 96% | 1012.2 hPa | 3.05 mm | - | 0 W/m² | - |
| 1777336889 | 16.67° C | 96% | 1012.5 hPa | 1.78 mm | - | 0 W/m² | - |
| 1777336588 | 16.67° C | 96% | 1012.8 hPa | 3.05 mm | - | 0 W/m² | - |
| 1777336286 | 16.67° C | 96% | 1012.7 hPa | 6.1 mm | - | 0 W/m² | - |
| 1777335983 | 16.67° C | 95% | 1013 hPa | 8.89 mm | - | 0 W/m² | - |
| 1777335376 | 16.67° C | 95% | 1013.4 hPa | 6.1 mm | - | 0 W/m² | - |
| 1777335074 | 16.67° C | 94% | 1013.2 hPa | 10.67 mm | - | 0 W/m² | - |
| 1777334772 | 16.67° C | 94% | 1013.6 hPa | 22.86 mm | - | 0 W/m² | - |
| 1777334469 | 17.22° C | 93% | 1013.5 hPa | 32.51 mm | - | 0 W/m² | - |
* Rain latest hour (hover to see other rain measurements)
** Current wind speed in m/s (hover to see current wind gust speed)